Simultaneous Nadir Overpasses (SNOs) Predictions

Prediction of SNOs between NOAA-19 and TERRA Satellite Orbit:

Table of predicted SNOs for the next 14.0 days since TLE Epoch: 5/14/2022
Index Date (NOAA-19) Time (NOAA-19) Lat,Lon (NOAA-19) SZA (NOAA-19 ) Date (TERRA) Time (TERRA) Lat,Lon (TERRA) SZA (TERRA ) Distance(km) Time Diff (sec)
1 05/16/2022 03:18:34 80.76, 166.23 63.59 05/16/2022 03:19:29 80.77, 166.20 63.62 2.04 55
2 05/16/2022 04:09:35 -80.76, -26.58 116.43 05/16/2022 04:08:57 -80.74, -26.56 116.46 2.12 38
3 05/18/2022 09:42:32 80.76, 70.23 63.08 05/18/2022 09:42:34 80.77, 70.35 63.10 2.47 2
4 05/20/2022 15:15:30 -80.76, 166.87 117.41 05/20/2022 15:16:13 -80.76, 166.80 117.40 1.46 43
5 05/20/2022 16:06:29 80.75, -25.45 62.62 05/20/2022 16:05:39 80.76, -25.57 62.59 2.29 50
6 05/22/2022 21:39:26 -80.75, 71.31 117.83 05/22/2022 21:39:17 -80.77, 71.15 117.84 3.28 9
7 05/25/2022 03:12:25 80.76, 167.85 61.74 05/25/2022 03:12:54 80.77, 167.78 61.76 1.77 29
8 05/25/2022 04:03:23 -80.76, -24.66 118.25 05/25/2022 04:02:21 -80.77, -24.57 118.25 2.66 62
9 05/27/2022 08:45:21 -80.77, -95.52 118.66 05/27/2022 08:46:32 -80.78, -95.61 118.63 2.00 71



Historial Predications of SNOs between NOAA-19 and TERRA
